Weather History for Monett, MO

Change the Weather History Date:

Saturday, November 17, 2012

  Actual Average (KJLN) Record (KJLN)
Temperature  
Mean Temperature 48 °F 48 °F  
Max Temperature 60 °F 58 °F 77 °F (1954)
Min Temperature 35 °F 37 °F 8 °F (1959)
Degree Days  
Heating Degree Days 18 17  
Month to date heating degree days 237  
Since 1 July heating degree days 489  
Cooling Degree Days 0 0  
Month to date cooling degree days 5  
Year to date cooling degree days 1696  
Moisture  
Dew Point 31 °F    
Average Humidity 58    
Maximum Humidity 87    
Minimum Humidity 34    
Precipitation  
Precipitation 0.00 in 0.13 in 1.50 in (1971)
Month to date precipitation 2.23  
Year to date precipitation 42.18  
Sea Level Pressure  
Sea Level Pressure 30.36 in    
Wind  
Wind Speed 7 mph (SE)    
Max Wind Speed 14 mph    
Max Gust Speed -    
Visibility 10 miles    
Events      
T = Trace of Precipitation, MM = Missing Value Source: NWS Daily Summary

Daily Weather History Graph

Daily Weather History Graph

Search for Another Location

Airport:

Trip Planner

Search our weather history database for the weather conditions in past years. The results will help you decide how hot, cold, wet, or windy it might be!

Date:

Astronomy

Nov. 17, 2012 Rise Set
Actual Time 6:57 AM CST 5:04 PM CST
Civil Twilight 6:29 AM CST 5:32 PM CST
Nautical Twilight 5:57 AM CST 6:04 PM CST
Astronomical Twilight 5:26 AM CST 6:34 PM CST
Moon 10:42 AM CST (11/17) 9:15 PM CST (11/17)
Length of Visible Light 11h 03m
Length of Day
10h 07m
Waxing Crescent, 20% of the Moon is Illuminated
Nov 17
Waxing Crescent
Nov 20
First Quarter
Nov 28
Full
Dec 6
Last Quarter
Dec 13
New

Hourly Weather History & Observations

Time (CST) Temp. Windchill Dew Point Humidity Pressure Visibility Wind Dir Wind Speed Gust Speed Precip Events Conditions
12:15 AM 39.2 °F 37.0 °F 30.2 °F 70% 30.39 in 10.0 mi SSE 3.5 mph - N/A   Clear
12:35 AM 41.0 °F - 30.2 °F 65% 30.39 in 10.0 mi Calm Calm - N/A   Clear
12:55 AM 41.0 °F 39.0 °F 30.2 °F 65% 30.39 in 10.0 mi SSW 3.5 mph - N/A   Clear
1:15 AM 41.0 °F 39.0 °F 30.2 °F 65% 30.39 in 10.0 mi SSE 3.5 mph - N/A   Clear
1:35 AM 41.0 °F 39.0 °F 30.2 °F 65% 30.39 in 10.0 mi SSE 3.5 mph - N/A   Clear
1:55 AM 41.0 °F 38.0 °F 30.2 °F 65% 30.38 in 10.0 mi ESE 4.6 mph - N/A   Clear
2:15 AM 41.0 °F 38.0 °F 30.2 °F 65% 30.38 in 10.0 mi SE 4.6 mph - N/A   Clear
2:35 AM 39.2 °F 35.9 °F 30.2 °F 70% 30.38 in 10.0 mi ESE 4.6 mph - N/A   Clear
2:55 AM 37.4 °F 32.8 °F 30.2 °F 75% 30.38 in 10.0 mi ESE 5.8 mph - N/A   Clear
3:15 AM 37.4 °F 32.1 °F 30.2 °F 75% 30.37 in 10.0 mi ESE 6.9 mph - N/A   Clear
3:35 AM 37.4 °F 31.4 °F 30.2 °F 75% 30.37 in 10.0 mi ESE 8.1 mph - N/A   Clear
3:55 AM 37.4 °F 31.4 °F 30.2 °F 75% 30.37 in 10.0 mi ESE 8.1 mph - N/A   Clear
4:15 AM 37.4 °F 30.3 °F 30.2 °F 75% 30.38 in 10.0 mi ESE 10.4 mph - N/A   Clear
4:35 AM 35.6 °F 28.6 °F 30.2 °F 81% 30.38 in 10.0 mi ESE 9.2 mph - N/A   Clear
4:55 AM 37.4 °F 29.8 °F 30.2 °F 75% 30.38 in 10.0 mi ESE 11.5 mph - N/A   Clear
5:15 AM 37.4 °F 30.3 °F 32.0 °F 81% 30.38 in 10.0 mi ESE 10.4 mph - N/A   Clear
5:35 AM 37.4 °F 30.8 °F 32.0 °F 81% 30.39 in 10.0 mi ESE 9.2 mph - N/A   Clear
5:55 AM 37.4 °F 31.4 °F 32.0 °F 81% 30.39 in 10.0 mi ESE 8.1 mph - N/A   Clear
6:15 AM 35.6 °F 29.2 °F 32.0 °F 87% 30.39 in 10.0 mi ESE 8.1 mph - N/A   Clear
6:35 AM 35.6 °F 29.2 °F 32.0 °F 87% 30.39 in 10.0 mi ESE 8.1 mph - N/A   Clear
6:55 AM 35.6 °F 28.0 °F 32.0 °F 87% 30.39 in 10.0 mi ESE 10.4 mph - N/A   Clear
7:15 AM 37.4 °F 31.4 °F 30.2 °F 75% 30.40 in 10.0 mi ESE 8.1 mph - N/A   Clear
7:35 AM 37.4 °F 30.3 °F 30.2 °F 75% 30.40 in 10.0 mi ESE 10.4 mph - N/A   Clear
7:55 AM 39.2 °F 32.5 °F 32.0 °F 75% 30.41 in 10.0 mi ESE 10.4 mph - N/A   Clear
8:15 AM 42.8 °F 36.6 °F 30.2 °F 61% 30.41 in 10.0 mi SE 11.5 mph - N/A   Clear
8:35 AM 42.8 °F 37.0 °F 32.0 °F 66% 30.42 in 10.0 mi SE 10.4 mph - N/A   Clear
8:55 AM 44.6 °F 38.8 °F 32.0 °F 61% 30.42 in 10.0 mi SE 11.5 mph - N/A   Clear
9:15 AM 46.4 °F 40.4 °F 32.0 °F 57% 30.42 in 10.0 mi SE 13.8 mph - N/A   Clear
9:35 AM 48.2 °F - 32.0 °F 54% 30.42 in 10.0 mi SE 9.2 mph - N/A   Clear
9:55 AM 50.0 °F - 32.0 °F 50% 30.42 in 10.0 mi SE 10.4 mph - N/A   Clear
10:15 AM 51.8 °F - 32.0 °F 47% 30.43 in 10.0 mi SSE 11.5 mph - N/A   Clear
10:35 AM 51.8 °F - 32.0 °F 47% 30.42 in 10.0 mi SE 11.5 mph - N/A   Clear
11:55 AM 59.0 °F - 30.2 °F 34% 30.39 in 10.0 mi SE 9.2 mph - N/A   Clear
12:15 PM 59.0 °F - 30.2 °F 34% 30.38 in 10.0 mi SE 9.2 mph - N/A   Clear
12:35 PM 59.0 °F - 32.0 °F 36% 30.37 in 10.0 mi SE 9.2 mph - N/A   Clear
12:55 PM 59.0 °F - 32.0 °F 36% 30.36 in 10.0 mi SE 8.1 mph - N/A   Clear
1:15 PM 59.0 °F - 32.0 °F 36% 30.36 in 10.0 mi SSE 8.1 mph - N/A   Clear
1:35 PM 59.0 °F - 32.0 °F 36% 30.35 in 10.0 mi South 9.2 mph - N/A   Clear
1:55 PM 60.8 °F - 32.0 °F 34% 30.34 in 10.0 mi SSE 10.4 mph - N/A   Clear
2:15 PM 60.8 °F - 32.0 °F 34% 30.33 in 10.0 mi SSE 10.4 mph - N/A   Clear
2:35 PM 60.8 °F - 32.0 °F 34% 30.32 in 10.0 mi SE 8.1 mph - N/A   Clear
2:55 PM 60.8 °F - 32.0 °F 34% 30.32 in 10.0 mi SSE 10.4 mph - N/A   Clear
3:15 PM 59.0 °F - 32.0 °F 36% 30.32 in 10.0 mi SE 9.2 mph - N/A   Clear
3:35 PM 59.0 °F - 32.0 °F 36% 30.31 in 10.0 mi SE 8.1 mph - N/A   Clear
3:55 PM 59.0 °F - 32.0 °F 36% 30.31 in 10.0 mi SE 6.9 mph - N/A   Clear
4:15 PM 57.2 °F - 33.8 °F 41% 30.31 in 10.0 mi ESE 6.9 mph - N/A   Clear
4:35 PM 55.4 °F - 32.0 °F 41% 30.30 in 10.0 mi ESE 8.1 mph - N/A   Clear
4:55 PM 53.6 °F - 32.0 °F 44% 30.30 in 10.0 mi ESE 5.8 mph - N/A   Clear
5:15 PM 53.6 °F - 32.0 °F 44% 30.30 in 10.0 mi ESE 6.9 mph - N/A   Clear
5:35 PM 51.8 °F - 32.0 °F 47% 30.30 in 10.0 mi ESE 6.9 mph - N/A   Clear
5:55 PM 50.0 °F - 32.0 °F 50% 30.30 in 10.0 mi ESE 6.9 mph - N/A   Clear
6:15 PM 50.0 °F - 30.2 °F 47% 30.31 in 10.0 mi SE 5.8 mph - N/A   Clear
6:35 PM 50.0 °F - 30.2 °F 47% 30.31 in 10.0 mi ESE 9.2 mph - N/A   Clear
6:55 PM 48.2 °F - 30.2 °F 50% 30.31 in 10.0 mi ESE 6.9 mph - N/A   Clear
7:15 PM 46.4 °F 42.4 °F 30.2 °F 53% 30.32 in 10.0 mi SE 8.1 mph - N/A   Clear
7:35 PM 46.4 °F 42.4 °F 30.2 °F 53% 30.32 in 10.0 mi SE 8.1 mph - N/A   Clear
7:55 PM 46.4 °F 42.9 °F 30.2 °F 53% 30.32 in 10.0 mi ESE 6.9 mph - N/A   Clear
8:15 PM 44.6 °F 40.2 °F 30.2 °F 57% 30.32 in 10.0 mi ESE 8.1 mph - N/A   Clear
8:35 PM 44.6 °F 40.2 °F 30.2 °F 57% 30.31 in 10.0 mi ESE 8.1 mph - N/A   Clear
8:55 PM 44.6 °F 40.2 °F 30.2 °F 57% 30.31 in 10.0 mi ESE 8.1 mph - N/A   Clear
9:15 PM 44.6 °F 40.7 °F 30.2 °F 57% 30.31 in 10.0 mi ESE 6.9 mph - N/A   Clear
9:35 PM 42.8 °F 38.0 °F 30.2 °F 61% 30.31 in 10.0 mi ESE 8.1 mph - N/A   Clear
9:55 PM 42.8 °F 37.5 °F 30.2 °F 61% 30.30 in 10.0 mi ESE 9.2 mph - N/A   Clear
10:15 PM 42.8 °F 38.0 °F 30.2 °F 61% 30.30 in 10.0 mi ESE 8.1 mph - N/A   Clear
10:35 PM 42.8 °F 38.0 °F 30.2 °F 61% 30.31 in 10.0 mi ESE 8.1 mph - N/A   Clear
10:55 PM 41.0 °F 35.8 °F 30.2 °F 65% 30.31 in 10.0 mi SE 8.1 mph - N/A   Clear
11:15 PM 41.0 °F 35.8 °F 30.2 °F 65% 30.32 in 10.0 mi ESE 8.1 mph - N/A   Clear
11:35 PM 42.8 °F 38.6 °F 30.2 °F 61% 30.32 in 10.0 mi ESE 6.9 mph - N/A   Clear
11:55 PM 42.8 °F 37.5 °F 30.2 °F 61% 30.32 in 10.0 mi ESE 9.2 mph - N/A   Clear